Past Weather in Frankfurt, Hesse, Germany — Yesterday or Further Back
Flag for Germany

Past Weather in Frankfurt, Hesse, Germany — Yesterday and Last 2 Weeks

Now
50 °F

Passing clouds.


Feels Like: 49 °F
Forecast: 56 / 46 °F
Wind: 3 mph from South

Location: Frankfurt-M-Flughafen Airport
Current Time: Sep 28, 2020 at 10:19:41 am
Latest Report: Sep 28, 2020 at 9:20 am
Visibility: N/A
Pressure29.83 "Hg
Humidity: 82%
Dew Point: 45 °F
Location of FrankfurtLocation

Past Weather in Frankfurt — Graph

°F

Frankfurt Temperature Yesterday

Maximum temperature yesterday: 55 °F (at 2:20 pm)
Minimum temperature yesterday: 46 °F (at 3:20 am)
Average temperature yesterday: 51 °F

High & Low Weather Summary for the Past Weeks

 TemperatureHumidityPressure
High91 °F (Sep 16, 3:20 pm)100% (Sep 27, 3:20 am)30.33 "Hg (Sep 27, 3:20 am)
Low41 °F (Sep 28, 7:20 am)27% (Sep 14, 5:20 pm)29.45 "Hg (Sep 26, 6:50 am)
Average64 °F61%29.93 "Hg
* Reported Sep 13 8:20 am — Sep 28 8:50 am, Frankfurt. Weather by CustomWeather, © 2020

Note: Actual official high and low records may vary slightly from our data, if they occured in-between our weather recording intervals... More about our weather records

Frankfurt Weather History for the Previous 24 Hours

Scroll right to see more
 ConditionsComfort  
Time TempWeatherWind HumidityBarometerVisibility
8:50 am
Mon, Sep 28
48 °FPassing clouds.3 mph87%29.83 "HgN/A
8:20 am48 °FPassing clouds.1 mph87%29.83 "HgN/A
7:50 am43 °FPassing clouds.1 mph93%29.83 "HgN/A
7:20 am41 °FPassing clouds.2 mph100%29.83 "HgN/A
6:50 am43 °FClear.2 mph93%29.83 "Hg10 mi
6:20 am43 °FClear.2 mph93%29.83 "Hg10 mi
5:50 am43 °FClear.2 mph93%29.80 "Hg10 mi
5:20 am43 °FClear.1 mph93%29.80 "Hg10 mi
4:50 am43 °FClear.2 mph100%29.80 "Hg10 mi
4:20 am43 °FClear.2 mph100%29.80 "Hg10 mi
3:50 am45 °FClear.1 mph93%29.80 "Hg10 mi
3:20 am45 °FClear.1 mph93%29.80 "Hg10 mi
2:50 am45 °FPassing clouds.1 mph93%29.80 "HgN/A
2:20 am46 °FPassing clouds.2 mph93%29.77 "HgN/A
1:50 am46 °FPassing clouds.2 mph100%29.77 "HgN/A
1:20 am50 °FPassing clouds.2 mph88%29.80 "HgN/A
12:50 am50 °FPassing clouds.2 mph94%29.80 "HgN/A
12:20 am50 °FPassing clouds.3 mph94%29.80 "HgN/A
11:50 pm
Sun, Sep 27
52 °FClear.5 mph88%29.80 "Hg10 mi
11:20 pm52 °FClear.5 mph88%29.77 "Hg10 mi
10:50 pm52 °FClear.6 mph88%29.77 "Hg10 mi
10:20 pm52 °FPassing clouds.3 mph88%29.77 "HgN/A
9:50 pm52 °FPassing clouds.3 mph88%29.77 "HgN/A
9:20 pm52 °FPassing clouds.3 mph88%29.77 "HgN/A
8:50 pm52 °FPassing clouds.3 mph88%29.74 "HgN/A
8:20 pm52 °FPassing clouds.3 mph88%29.74 "HgN/A
7:50 pm52 °FPassing clouds.2 mph88%29.74 "HgN/A
7:20 pm54 °FPassing clouds.1 mph82%29.74 "HgN/A
6:50 pm54 °FPartly sunny.2 mph77%29.71 "HgN/A
6:20 pm54 °FPartly sunny.3 mph77%29.71 "HgN/A
5:50 pm54 °FPartly sunny.3 mph72%29.71 "HgN/A
5:20 pm55 °FBroken clouds.2 mph67%29.68 "HgN/A
4:50 pm55 °FBroken clouds.3 mph67%29.68 "HgN/A
4:20 pm54 °FBroken clouds.6 mph72%29.68 "HgN/A
3:50 pm54 °FBroken clouds.7 mph72%29.65 "HgN/A
3:20 pm54 °FBroken clouds.8 mph72%29.65 "HgN/A
2:50 pm55 °FBroken clouds.8 mph67%29.65 "HgN/A
2:20 pm55 °FBroken clouds.7 mph67%29.65 "HgN/A
1:50 pm54 °FBroken clouds.7 mph77%29.62 "HgN/A
1:20 pm54 °FBroken clouds.10 mph77%29.62 "HgN/A
12:50 pm54 °FBroken clouds.8 mph77%29.62 "HgN/A
12:20 pm54 °FBroken clouds.9 mph77%29.62 "HgN/A
11:50 am52 °FBroken clouds.9 mph82%29.59 "HgN/A
11:20 am52 °FBroken clouds.10 mph82%29.59 "HgN/A
10:50 am50 °FPartly sunny.9 mph94%29.56 "HgN/A
10:20 am50 °FDrizzle. Broken clouds.9 mph88%29.56 "HgN/A
Weather by CustomWeather, © 2020

See weather overview